La Porte, IN

11:51 PM CDT on May 22, 2017 (GMT -0500)
La Porte Municipal

Weather History for KPPO - December, 2012

Change the Weather History Date:

Wednesday, December 5, 2012

  Actual Average (KSBN) Record (KSBN)
Temperature  
Mean Temperature 34 °F -  
Max Temperature 39 °F 39 °F 70 °F (2001)
Min Temperature 28 °F 28 °F 4 °F (1899)
Degree Days  
Heating Degree Days 32    
Moisture  
Dew Point 26 °F    
Average Humidity 71    
Maximum Humidity 84    
Minimum Humidity 56    
Precipitation  
Precipitation 0.00 in - - ()
Sea Level Pressure  
Sea Level Pressure 30.34 in    
Wind  
Wind Speed 9 mph (ENE)    
Max Wind Speed 14 mph    
Max Gust Speed 20 mph    
Visibility 10 miles    
Events      
Averages and records for this station are not official NWS values.
T = Trace of Precipitation, MM = Missing Value Source: NWS Daily Summary

Daily Weather History Graph

Daily Weather History Graph

Search for Another Location

Airport or City:

Trip Planner

Search our weather history database for the weather conditions in past years. The results will help you decide how hot, cold, wet, or windy it might be!

Date:

Astronomy

Dec. 05, 2012 Rise Set
Actual Time 6:58 AM CST 4:16 PM CST
Civil Twilight 6:27 AM CST 4:47 PM CST
Nautical Twilight 5:52 AM CST 5:22 PM CST
Astronomical Twilight 5:19 AM CST 5:56 PM CST
Moon 11:09 PM CST (12/5) 11:18 AM CST (12/5)
Length of Visible Light 10h 20m
Length of Day
9h 18m
Waning Gibbous, 59% of the Moon is Illuminated
Dec 5
Waning Gibbous
Dec 6
Last Quarter
Dec 13
New
Dec 19
First Quarter
Dec 28
Full

Hourly Weather History & Observations

Time (CST) Temp. Windchill Dew Point Humidity Pressure Visibility Wind Dir Wind Speed Gust Speed Precip Events Conditions
12:15 AM 39.0 °F 31.0 °F 30.4 °F 71% 30.25 in 10.0 mi NNW 13.8 mph 18.4 mph N/A   Clear
12:35 AM 38.3 °F 30.9 °F 29.3 °F 70% 30.26 in 10.0 mi NNW 11.5 mph 19.6 mph N/A   Clear
12:55 AM 37.4 °F 29.3 °F 28.0 °F 69% 30.26 in 10.0 mi NNW 12.7 mph 16.1 mph N/A   Scattered Clouds
1:15 AM 37.0 °F 29.8 °F 28.8 °F 72% 30.28 in 10.0 mi North 10.4 mph - N/A   Scattered Clouds
1:55 AM 35.6 °F 27.5 °F 28.6 °F 76% 30.30 in 10.0 mi NNW 11.5 mph - N/A   Clear
2:15 AM 35.6 °F 27.5 °F 28.0 °F 74% 30.31 in 10.0 mi NNW 11.5 mph - N/A   Clear
2:35 AM 35.1 °F 27.4 °F 27.5 °F 74% 30.31 in 10.0 mi North 10.4 mph - N/A   Scattered Clouds
2:55 AM 34.7 °F 26.9 °F 27.5 °F 75% 30.32 in 10.0 mi NNW 10.4 mph - N/A   Scattered Clouds
3:15 AM 34.3 °F 27.0 °F 27.5 °F 76% 30.32 in 10.0 mi NNW 9.2 mph - N/A   Scattered Clouds
3:35 AM 34.3 °F 27.0 °F 27.1 °F 75% 30.32 in 10.0 mi North 9.2 mph - N/A   Clear
3:55 AM 33.8 °F 25.3 °F 27.0 °F 76% 30.32 in 10.0 mi North 11.5 mph - N/A   Clear
4:15 AM 33.8 °F 25.8 °F 26.6 °F 75% 30.33 in 10.0 mi North 10.4 mph - N/A   Clear
4:35 AM 33.1 °F 26.1 °F 26.6 °F 77% 30.33 in 10.0 mi North 8.1 mph - N/A   Clear
4:55 AM 32.9 °F 24.7 °F 25.7 °F 75% 30.34 in 10.0 mi North 10.4 mph - N/A   Clear
5:15 AM 32.5 °F 25.5 °F 25.3 °F 75% 30.34 in 10.0 mi North 8.1 mph - N/A   Clear
5:35 AM 32.4 °F 24.6 °F 25.2 °F 75% 30.35 in 10.0 mi North 9.2 mph - N/A   Scattered Clouds
5:55 AM 32.2 °F 25.8 °F 25.2 °F 75% 30.36 in 10.0 mi North 6.9 mph - N/A   Scattered Clouds
6:15 AM 32.0 °F 24.8 °F 24.8 °F 75% 30.36 in 10.0 mi North 8.1 mph - N/A   Scattered Clouds
6:35 AM 32.0 °F 24.8 °F 25.0 °F 75% 30.37 in 10.0 mi North 8.1 mph - N/A   Scattered Clouds
6:55 AM 31.8 °F 23.9 °F 25.2 °F 76% 30.37 in 10.0 mi North 9.2 mph - N/A   Scattered Clouds
8:35 AM 34.3 °F 25.9 °F 25.7 °F 71% 30.40 in 10.0 mi NNE 11.5 mph - N/A   Clear
8:55 AM 35.1 °F 26.9 °F 25.7 °F 69% 30.40 in 10.0 mi NNE 11.5 mph 17.3 mph N/A   Clear
9:15 AM 35.4 °F 28.4 °F 25.2 °F 66% 30.41 in 10.0 mi NNE 9.2 mph - N/A   Clear
9:35 AM 36.0 °F 29.0 °F 25.2 °F 65% 30.41 in 10.0 mi NE 9.2 mph - N/A   Clear
9:55 AM 36.0 °F 29.0 °F 24.8 °F 64% 30.41 in 10.0 mi NNE 9.2 mph - N/A   Clear
10:15 AM 36.5 °F 29.7 °F 24.8 °F 63% 30.40 in 10.0 mi NE 9.2 mph - N/A   Clear
10:35 AM 36.9 °F 32.2 °F 25.0 °F 62% 30.40 in 10.0 mi NE 5.8 mph - N/A   Clear
10:55 AM 37.2 °F 31.9 °F 25.5 °F 63% 30.40 in 10.0 mi ENE 6.9 mph - N/A   Clear
11:15 AM 36.3 °F 30.8 °F 25.5 °F 65% 30.39 in 10.0 mi East 6.9 mph - N/A   Clear
11:35 AM 37.2 °F 34.7 °F 25.0 °F 61% 30.39 in 10.0 mi ESE 3.5 mph - N/A   Clear
11:55 AM 37.6 °F - 25.0 °F 60% 30.38 in 10.0 mi Calm Calm - N/A   Clear
12:15 PM 37.8 °F 35.3 °F 23.9 °F 57% 30.38 in 10.0 mi ENE 3.5 mph - N/A   Clear
12:35 PM 38.5 °F 36.1 °F 25.0 °F 58% 30.38 in 10.0 mi East 3.5 mph - N/A   Clear
12:55 PM 38.5 °F 34.1 °F 25.3 °F 59% 30.36 in 10.0 mi East 5.8 mph - N/A   Clear
1:15 PM 39.0 °F 32.8 °F 26.1 °F 60% 30.35 in 10.0 mi East 9.2 mph - N/A   Clear
1:35 PM 38.3 °F 34.8 °F 25.0 °F 59% 30.36 in 10.0 mi ESE 4.6 mph - N/A   Clear
1:55 PM 38.7 °F 36.3 °F 24.3 °F 56% 30.35 in 10.0 mi ENE 3.5 mph - N/A   Clear
2:15 PM 38.8 °F 34.6 °F 25.0 °F 58% 30.36 in 10.0 mi East 5.8 mph - N/A   Clear
2:35 PM 38.5 °F 36.1 °F 24.4 °F 57% 30.36 in 10.0 mi East 3.5 mph - N/A   Clear
2:55 PM 38.3 °F 33.9 °F 24.3 °F 57% 30.35 in 10.0 mi East 5.8 mph - N/A   Clear
3:15 PM 37.9 °F 35.5 °F 24.1 °F 57% 30.35 in 10.0 mi ESE 3.5 mph - N/A   Clear
3:35 PM 37.2 °F 33.6 °F 24.4 °F 60% 30.35 in 10.0 mi East 4.6 mph - N/A   Clear
3:55 PM 35.6 °F 32.8 °F 24.3 °F 63% 30.35 in 10.0 mi East 3.5 mph - N/A   Clear
4:15 PM 34.0 °F 29.8 °F 26.2 °F 73% 30.35 in 10.0 mi East 4.6 mph - N/A   Clear
4:35 PM 32.7 °F 28.3 °F 26.8 °F 79% 30.35 in 10.0 mi East 4.6 mph - N/A   Clear
4:55 PM 31.6 °F 26.0 °F 25.5 °F 78% 30.35 in 10.0 mi East 5.8 mph - N/A   Clear
5:15 PM 31.1 °F 25.4 °F 25.3 °F 79% 30.36 in 10.0 mi East 5.8 mph - N/A   Clear
5:35 PM 30.6 °F 25.8 °F 24.8 °F 79% 30.36 in 10.0 mi East 4.6 mph - N/A   Scattered Clouds
5:55 PM 30.2 °F 24.3 °F 25.2 °F 82% 30.35 in 10.0 mi ESE 5.8 mph - N/A   Scattered Clouds
6:15 PM 30.7 °F 24.9 °F 25.0 °F 79% 30.34 in 10.0 mi ESE 5.8 mph - N/A   Scattered Clouds
6:35 PM 30.7 °F 24.1 °F 24.8 °F 79% 30.34 in 10.0 mi ESE 6.9 mph - N/A   Clear
6:55 PM 30.2 °F 24.3 °F 24.4 °F 79% 30.33 in 10.0 mi ESE 5.8 mph - N/A   Scattered Clouds
7:15 PM 29.7 °F 23.7 °F 24.4 °F 81% 30.33 in 10.0 mi ESE 5.8 mph - N/A   Scattered Clouds
7:35 PM 29.7 °F 23.7 °F 24.4 °F 81% 30.33 in 10.0 mi ESE 5.8 mph - N/A   Scattered Clouds
7:55 PM 29.3 °F 23.2 °F 24.4 °F 82% 30.32 in 10.0 mi ESE 5.8 mph - N/A   Scattered Clouds
8:15 PM 28.9 °F 25.2 °F 24.3 °F 83% 30.31 in 10.0 mi ESE 3.5 mph - N/A   Mostly Cloudy
8:35 PM 28.8 °F 25.0 °F 24.4 °F 84% 30.31 in 10.0 mi ESE 3.5 mph - N/A   Scattered Clouds
8:55 PM 29.7 °F 26.1 °F 23.7 °F 79% 30.31 in 10.0 mi SE 3.5 mph - N/A   Scattered Clouds
9:15 PM 29.7 °F 24.7 °F 23.9 °F 79% 30.30 in 10.0 mi SE 4.6 mph - N/A   Scattered Clouds
9:35 PM 30.0 °F 24.1 °F 24.4 °F 80% 30.29 in 10.0 mi SE 5.8 mph - N/A   Scattered Clouds
9:55 PM 30.0 °F 23.2 °F 24.8 °F 81% 30.28 in 10.0 mi SE 6.9 mph - N/A   Mostly Cloudy
10:15 PM 30.2 °F 23.4 °F 24.8 °F 80% 30.28 in 10.0 mi SE 6.9 mph - N/A   Scattered Clouds
10:35 PM 30.2 °F 22.6 °F 24.8 °F 80% 30.27 in 10.0 mi SSE 8.1 mph - N/A   Scattered Clouds